When you browse on this site, cookies collect data to enhance your experience and personalize the content and advertising you see.
Visit our Privacy Policy to learn more. By continuing to use the site, you agree to this use of cookies and data.
  • In Romania
  • List of Countries
  • For 7 days
  • Water Temperature
  • Satellite Maps
  • Weather Map
  • Weather Widgets
  • user-avatar
    Login

    Hourly Weather Oran

    Today, 25 June, Tuesday

    Time Temperature Precipitation Wind Pressure Humidity
    00:00 +21°C° 0 mm 2 mps 751 mmHg 88%
    01:00 +21°C° 0 mm 2 mps 751 mmHg 89%
    02:00 +21°C° 0 mm 2 mps 750 mmHg 91%
    03:00 +20°C° 0 mm 2 mps 750 mmHg 92%
    04:00 +22°C° 0 mm 1 mps 750 mmHg 90%
    05:00 +22°C° 0 mm 1 mps 751 mmHg 88%
    06:00 +22°C° 0 mm 1 mps 751 mmHg 86%
    07:00 +24°C° 0 mm 1 mps 751 mmHg 78%
    08:00 +25°C° 0 mm 1 mps 751 mmHg 70%
    09:00 +25°C° 0 mm 0 mps 751 mmHg 63%
    10:00 +28°C° 0 mm 1 mps 751 mmHg 58%
    11:00 +30°C° 0 mm 2 mps 751 mmHg 53%
    12:00 +32°C° 0 mm 4 mps 751 mmHg 47%
    13:00 +32°C° 0 mm 4 mps 750 mmHg 49%
    14:00 +30°C° 0 mm 4 mps 750 mmHg 51%
    15:00 +30°C° 0 mm 5 mps 750 mmHg 52%
    16:00 +29°C° 0 mm 4 mps 750 mmHg 56%
    17:00 +28°C° 0 mm 4 mps 750 mmHg 59%
    18:00 +28°C° 0 mm 3 mps 750 mmHg 62%
    19:00 +27°C° 0 mm 3 mps 750 mmHg 67%
    20:00 +26°C° 0 mm 3 mps 750 mmHg 72%
    21:00 +25°C° 0 mm 3 mps 751 mmHg 77%
    22:00 +25°C° 0 mm 3 mps 751 mmHg 79%
    23:00 +24°C° 0 mm 2 mps 751 mmHg 81%

    Tomorrow, 26 June, Wednesday

    Time Temperature Precipitation Wind Pressure Humidity
    00:00 +24°C° 0 mm 2 mps 751 mmHg 83%
    01:00 +23°C° 0 mm 1 mps 751 mmHg 87%
    02:00 +23°C° 0 mm 1 mps 751 mmHg 90%
    03:00 +22°C° 0 mm 1 mps 751 mmHg 93%
    04:00 +23°C° 0 mm 1 mps 751 mmHg 90%
    05:00 +23°C° 0 mm 1 mps 751 mmHg 88%
    06:00 +24°C° 0 mm 1 mps 752 mmHg 85%
    07:00 +25°C° 0 mm 1 mps 752 mmHg 77%
    08:00 +26°C° 0 mm 2 mps 752 mmHg 69%
    09:00 +28°C° 0 mm 2 mps 752 mmHg 61%
    10:00 +29°C° 0 mm 2 mps 752 mmHg 57%
    11:00 +30°C° 0 mm 3 mps 752 mmHg 54%
    12:00 +32°C° 0 mm 4 mps 752 mmHg 50%
    13:00 +32°C° 0 mm 4 mps 751 mmHg 50%
    14:00 +32°C° 0 mm 4 mps 751 mmHg 50%
    15:00 +33°C° 0 mm 4 mps 750 mmHg 49%
    16:00 +32°C° 0 mm 4 mps 750 mmHg 50%
    17:00 +30°C° 0 mm 3 mps 750 mmHg 50%
    18:00 +30°C° 0 mm 3 mps 750 mmHg 51%
    19:00 +28°C° 0 mm 2 mps 750 mmHg 58%
    20:00 +27°C° 0 mm 2 mps 751 mmHg 65%
    21:00 +26°C° 0 mm 2 mps 751 mmHg 72%
    22:00 +25°C° 0 mm 2 mps 751 mmHg 77%
    23:00 +24°C° 0 mm 2 mps 751 mmHg 81%

    Day after tomorrow, 27 June, Thursday

    Time Temperature Precipitation Wind Pressure Humidity
    00:00 +24°C° 0 mm 1 mps 751 mmHg 86%
    01:00 +24°C° 0 mm 2 mps 751 mmHg 87%
    02:00 +24°C° 0 mm 3 mps 750 mmHg 88%
    03:00 +23°C° 0 mm 4 mps 750 mmHg 89%
    04:00 +23°C° 0 mm 4 mps 751 mmHg 87%
    05:00 +23°C° 0 mm 4 mps 751 mmHg 86%
    06:00 +24°C° 0 mm 3 mps 751 mmHg 85%
    07:00 +26°C° 0 mm 3 mps 751 mmHg 74%
    08:00 +28°C° 0 mm 2 mps 751 mmHg 64%
    09:00 +29°C° 0 mm 1 mps 751 mmHg 53%
    10:00 +31°C° 0 mm 2 mps 751 mmHg 49%
    11:00 +34°C° 0 mm 2 mps 751 mmHg 44%
    12:00 +36°C° 0 mm 3 mps 751 mmHg 40%
    13:00 +36°C° 0 mm 3 mps 751 mmHg 39%
    14:00 +36°C° 0 mm 3 mps 750 mmHg 38%
    15:00 +36°C° 0 mm 4 mps 750 mmHg 37%
    16:00 +35°C° 0 mm 3 mps 749 mmHg 40%
    17:00 +34°C° 0 mm 3 mps 749 mmHg 44%
    18:00 +31°C° 0 mm 3 mps 749 mmHg 47%
    19:00 +29°C° 0 mm 3 mps 749 mmHg 58%
    20:00 +27°C° 0 mm 3 mps 750 mmHg 69%
    21:00 +25°C° 0 mm 3 mps 750 mmHg 80%
    22:00 +25°C° 0 mm 3 mps 750 mmHg 83%
    23:00 +25°C° 0 mm 3 mps 750 mmHg 86%

    28 June, Friday

    Time Temperature Precipitation Wind Pressure Humidity
    00:00 +24°C° 0 mm 3 mps 750 mmHg 88%
    01:00 +24°C° 0 mm 3 mps 750 mmHg 90%
    02:00 +23°C° 0 mm 4 mps 750 mmHg 91%
    03:00 +22°C° 0 mm 4 mps 750 mmHg 92%
    04:00 +23°C° 0 mm 4 mps 750 mmHg 90%
    05:00 +23°C° 0 mm 4 mps 750 mmHg 88%
    06:00 +23°C° 0 mm 4 mps 750 mmHg 85%
    07:00 +26°C° 0 mm 4 mps 750 mmHg 75%
    08:00 +28°C° 0 mm 3 mps 750 mmHg 64%
    09:00 +30°C° 0 mm 3 mps 750 mmHg 53%
    10:00 +33°C° 0 mm 3 mps 750 mmHg 49%
    11:00 +35°C° 0 mm 3 mps 750 mmHg 44%
    12:00 +36°C° 0 mm 3 mps 750 mmHg 39%
    13:00 +36°C° 0 mm 3 mps 750 mmHg 38%
    14:00 +36°C° 0 mm 4 mps 749 mmHg 37%
    15:00 +37°C° 0 mm 4 mps 749 mmHg 36%
    16:00 +35°C° 0 mm 4 mps 749 mmHg 37%
    17:00 +34°C° 0 mm 5 mps 749 mmHg 38%
    18:00 +33°C° 0 mm 5 mps 749 mmHg 39%
    19:00 +32°C° 0 mm 4 mps 749 mmHg 44%
    20:00 +29°C° 0 mm 3 mps 749 mmHg 49%
    21:00 +28°C° 0 mm 2 mps 750 mmHg 54%
    22:00 +27°C° 0 mm 2 mps 749 mmHg 57%
    23:00 +26°C° 0 mm 2 mps 749 mmHg 60%

    29 June, Saturday

    Time Temperature Precipitation Wind Pressure Humidity
    00:00 +25°C° 0 mm 1 mps 749 mmHg 63%
    01:00 +24°C° 0 mm 1 mps 749 mmHg 67%
    02:00 +24°C° 0 mm 1 mps 749 mmHg 70%
    03:00 +23°C° 0 mm 1 mps 748 mmHg 73%
    04:00 +24°C° 0 mm 2 mps 749 mmHg 74%
    05:00 +24°C° 0 mm 2 mps 749 mmHg 76%
    06:00 +24°C° 0 mm 2 mps 749 mmHg 77%
    07:00 +26°C° 0 mm 2 mps 749 mmHg 67%
    08:00 +28°C° 0 mm 2 mps 750 mmHg 57%
    09:00 +30°C° 0 mm 2 mps 750 mmHg 47%
    10:00 +32°C° 0 mm 2 mps 750 mmHg 41%
    11:00 +35°C° 0 mm 3 mps 750 mmHg 34%
    12:00 +37°C° 0 mm 3 mps 750 mmHg 28%
    13:00 +37°C° 0 mm 4 mps 749 mmHg 27%
    14:00 +37°C° 0 mm 5 mps 749 mmHg 25%
    15:00 +39°C° 0 mm 6 mps 749 mmHg 24%
    16:00 +36°C° 0 mm 6 mps 749 mmHg 27%
    17:00 +35°C° 0 mm 6 mps 749 mmHg 31%
    18:00 +33°C° 0 mm 6 mps 749 mmHg 35%
    19:00 +32°C° 0 mm 5 mps 749 mmHg 40%
    20:00 +29°C° 0 mm 3 mps 749 mmHg 45%
    21:00 +27°C° 0 mm 1 mps 750 mmHg 50%
    22:00 +27°C° 0 mm 2 mps 750 mmHg 50%
    23:00 +27°C° 0 mm 3 mps 750 mmHg 49%

    30 June, Sunday

    Time Temperature Precipitation Wind Pressure Humidity
    00:00 +26°C° 0 mm 3 mps 749 mmHg 49%
    01:00 +25°C° 0 mm 3 mps 749 mmHg 57%
    02:00 +24°C° 0 mm 3 mps 749 mmHg 65%
    03:00 +24°C° 0 mm 3 mps 749 mmHg 72%
    04:00 +24°C° 0 mm 2 mps 749 mmHg 72%
    05:00 +24°C° 0 mm 2 mps 749 mmHg 72%
    06:00 +25°C° 0 mm 1 mps 750 mmHg 71%
    07:00 +27°C° 0 mm 1 mps 750 mmHg 63%
    08:00 +29°C° 0 mm 2 mps 750 mmHg 54%
    09:00 +31°C° 0 mm 2 mps 751 mmHg 45%
    10:00 +32°C° 0 mm 2 mps 751 mmHg 42%
    11:00 +35°C° 0 mm 3 mps 751 mmHg 39%
    12:00 +36°C° 0 mm 3 mps 751 mmHg 36%
    13:00 +36°C° 0 mm 4 mps 750 mmHg 36%
    14:00 +36°C° 0 mm 4 mps 750 mmHg 36%
    15:00 +36°C° 0 mm 5 mps 750 mmHg 36%
    16:00 +35°C° 0 mm 4 mps 750 mmHg 39%
    17:00 +34°C° 0 mm 4 mps 750 mmHg 41%
    18:00 +33°C° 0 mm 3 mps 750 mmHg 43%
    19:00 +30°C° 0 mm 3 mps 751 mmHg 53%
    20:00 +28°C° 0 mm 3 mps 751 mmHg 62%
    21:00 +26°C° 0 mm 2 mps 751 mmHg 72%
    22:00 +26°C° 0 mm 2 mps 751 mmHg 73%
    23:00 +25°C° 0 mm 2 mps 751 mmHg 73%
    Show more